User: anonymous   Login
Location: Newark
(46.7636°N, 1.8358°W)
Time: 04:52:34
(UTC+00:00)
Language:

Transit 2A - Orbit

View from above orbital plane
View from above orbital plane
View from above satellite
View from above satellite

Ground track
Ground track

The orbit data is extracted from the following two-line orbital elements,

1    45U 60007A   19290.56172631 -.00000078  00000-0  72519-5 0  9999
2    45  66.6938 303.5971 0250298 134.3967 227.7930 14.33651934 87741
Epoch (UTC): 17 October 2019 13:28:53
Eccentricity: 0.0250298
inclination: 66.6938°
perigee height: 600 km
apogee height: 959 km
right ascension of ascending node: 303.5971°
argument of perigee: 134.3967°
revolutions per day: 14.33651934
mean anomaly at epoch: 227.7930°
orbit number at epoch: 8774

The dashed part of the orbit path shows where the satellite is in the earth's shadow,  

DLR